sat.trackr.live / text

‹ back to catalog

YAOGAN-30 06A

NORAD 44449 · 2019-045A

PAYLOAD ACTIVE UNKNOWN

§ Identity

Operator
Country
PRC
Launch date
2019-07-26
Launch site
XICLF
Launch vehicle
Mass (kg)
RCS (m²)

External: N2YO · Heavens-Above · Gunter

§ Orbital elements

Epoch: 2026-09-20T00:53:39.346944Z

Period
95.80 min
Inclination
34.9925°
Eccentricity
0.0003663
Mean motion
15.03069462 rev/d
Perigee alt
554.9 km
Apogee alt
560.0 km
Semi-major
6,935.6 km
B*
1.1960e-4
RAAN
111.7952°
Arg perigee
11.8223°
Mean anomaly
348.2570°
Rev number
39,089

§ Raw data

YAOGAN-30 06A1 44449U 19045A   26263.03726096  .00001616  00000+0  11960-3 0  99992 44449  34.9925 111.7952 0003663  11.8223 348.2570 15.03069462390894

JSON: /api/v1/satellites/44449 · /tle

For live sub-satellite position, see the globe view (requires WebGL).

§ Visibility from observer

Set your observer location to see the next 7 days of passes ≥ 10°. The values pass through the URL so the page stays shareable.

No JS? Fill the form by hand. The geolocation button needs JavaScript.